Location: Unspecified
(43.3830°N, 0.0000°E)
Time: 11:38:46
(UTC+00:00)

Explorer 7 - Pass Details

Date: 01 July 2019
Orbit: 485 x 680 km, 50.3° (Epoch: 22 July)

Event Time Altitude Azimuth Distance (km) Brightness Sun altitude
Rises 09:25:30 0° 296° (WNW) 2,780 10.0 51.7°
Reaches altitude 10° 09:27:49 10° 304° (WNW) 1,915 9.3 52.1°
Maximum altitude 09:32:00 42° 16° (NNE) 881 8.4 52.8°
Drops below altitude 10° 09:36:26 10° 87° (E) 2,027 10.4 53.6°
Sets 09:38:56 0° 95° (E) 2,963 11.1 54.0°
